Weather History for Litchfield, MN

Change the Weather History Date:

Wednesday, April 9, 2014

  Actual Average Record
Temperature  
Mean Temperature 53 °F -  
Max Temperature 73 °F 51 °F 80 °F (1977)
Min Temperature 33 °F 30 °F 12 °F (1997)
Degree Days  
Heating Degree Days 12    
Growing Degree Days 3 (Base 50)    
Moisture  
Dew Point 38 °F    
Average Humidity 57    
Maximum Humidity 87    
Minimum Humidity 37    
Precipitation  
Precipitation 0.00 in - - ()
Sea Level Pressure  
Sea Level Pressure 29.70 in    
Wind  
Wind Speed 4 mph (SSW)    
Max Wind Speed 17 mph    
Max Gust Speed 24 mph    
Visibility 10 miles    
Events      
Averages and records for this station are not official NWS values.
T = Trace of Precipitation, MM = Missing Value Source: NWS Daily Summary

Daily Weather History Graph

Daily Weather History Graph

Search for Another Location

Airport:

Trip Planner

Search our weather history database for the weather conditions in past years. The results will help you decide how hot, cold, wet, or windy it might be!

Date:

Astronomy

Apr. 09, 2014 Rise Set
Actual Time 6:43 AM CDT 7:56 PM CDT
Civil Twilight 6:13 AM CDT 8:26 PM CDT
Nautical Twilight 5:37 AM CDT 9:02 PM CDT
Astronomical Twilight 4:58 AM CDT 9:41 PM CDT
Moon 2:31 PM CDT (4/9) 3:47 AM CDT (4/9)
Length of Visible Light 14h 12m
Length of Day
13h 12m
Waxing Gibbous, 72% of the Moon is Illuminated
Apr 9
Waxing Gibbous
Apr 15
Full
Apr 22
Last Quarter
Apr 29
New
May 6
First Quarter

Hourly Weather History & Observations

Time (CDT) Temp. Windchill Dew Point Humidity Pressure Visibility Wind Dir Wind Speed Gust Speed Precip Events Conditions
12:13 AM 35.6 °F - 28.4 °F 75% 29.96 in 10.0 mi Calm Calm - N/A   Clear
12:32 AM 35.6 °F - 30.2 °F 81% 29.96 in 10.0 mi Calm Calm - N/A   Clear
12:53 AM 33.8 °F - 30.2 °F 87% 29.95 in 10.0 mi Calm Calm - N/A   Clear
1:12 AM 33.8 °F - 30.2 °F 87% 29.94 in 10.0 mi Calm Calm - N/A   Clear
1:33 AM 35.6 °F - 30.2 °F 81% 29.94 in 10.0 mi Calm Calm - N/A   Clear
1:53 AM 33.8 °F - 30.2 °F 87% 29.94 in 10.0 mi Calm Calm - N/A   Scattered Clouds
2:13 AM 33.8 °F - 30.2 °F 87% 29.93 in 10.0 mi Calm Calm - N/A   Scattered Clouds
2:33 AM 33.8 °F - 30.2 °F 87% 29.92 in 10.0 mi Calm Calm - N/A   Clear
2:53 AM 33.8 °F - 30.2 °F 87% 29.92 in 10.0 mi Calm Calm - N/A   Clear
3:13 AM 35.6 °F 32.8 °F 30.2 °F 81% 29.91 in 10.0 mi South 3.5 mph - N/A   Clear
3:33 AM 37.4 °F - 30.2 °F 75% 29.90 in 10.0 mi Calm Calm - N/A   Clear
3:53 AM 37.4 °F - 30.2 °F 75% 29.89 in 10.0 mi Calm Calm - N/A   Scattered Clouds
4:13 AM 37.4 °F 34.9 °F 30.2 °F 75% 29.89 in 10.0 mi South 3.5 mph - N/A   Clear
4:33 AM 37.4 °F 33.8 °F 30.2 °F 75% 29.89 in 10.0 mi South 4.6 mph - N/A   Mostly Cloudy
4:53 AM 37.4 °F - 30.2 °F 75% 29.88 in 10.0 mi Calm Calm - N/A   Overcast
5:13 AM 39.2 °F 35.9 °F 32.0 °F 75% 29.87 in 10.0 mi South 4.6 mph - N/A   Overcast
5:33 AM 39.2 °F 35.9 °F 32.0 °F 75% 29.86 in 10.0 mi SSE 4.6 mph - N/A   Overcast
5:53 AM 39.2 °F 35.9 °F 30.2 °F 70% 29.85 in 10.0 mi SSE 4.6 mph - N/A   Overcast
6:13 AM 39.2 °F 35.9 °F 30.2 °F 70% 29.84 in 10.0 mi South 4.6 mph - N/A   Overcast
6:33 AM 39.2 °F 35.0 °F 30.2 °F 70% 29.82 in 10.0 mi South 5.8 mph - N/A   Mostly Cloudy
6:53 AM 39.2 °F 37.0 °F 30.2 °F 70% 29.81 in 10.0 mi South 3.5 mph - N/A   Scattered Clouds
7:13 AM 39.2 °F 35.0 °F 30.2 °F 70% 29.80 in 10.0 mi South 5.8 mph - N/A   Scattered Clouds
7:33 AM 39.2 °F 35.0 °F 30.2 °F 70% 29.79 in 10.0 mi SSE 5.8 mph - N/A   Clear
7:53 AM 41.0 °F 37.1 °F 30.2 °F 65% 29.78 in 10.0 mi South 5.8 mph - N/A   Clear
8:13 AM 42.8 °F 38.6 °F 30.2 °F 61% 29.78 in 10.0 mi South 6.9 mph - N/A   Unknown
8:33 AM 44.6 °F 41.4 °F 30.2 °F 57% 29.77 in 10.0 mi South 5.8 mph - N/A   Unknown
8:53 AM 44.6 °F 40.2 °F 30.2 °F 57% 29.76 in 10.0 mi South 8.1 mph - N/A   Unknown
9:13 AM 46.4 °F 41.9 °F 30.2 °F 53% 29.76 in 10.0 mi South 9.2 mph - N/A   Clear
9:33 AM 46.4 °F 41.9 °F 30.2 °F 53% 29.74 in 10.0 mi SSW 9.2 mph 16.1 mph N/A   Clear
9:53 AM 48.2 °F - 30.2 °F 50% 29.73 in 10.0 mi SSW 5.8 mph - N/A   Clear
10:13 AM 51.8 °F - 32.0 °F 47% 29.72 in 10.0 mi SSW 6.9 mph - N/A   Clear
10:52 AM 53.6 °F - 33.8 °F 47% 29.71 in 10.0 mi SW 5.8 mph - N/A   Clear
11:13 AM 55.4 °F - 33.8 °F 44% 29.70 in 10.0 mi South 9.2 mph - N/A   Clear
11:33 AM 55.4 °F - 35.6 °F 47% 29.70 in 10.0 mi SSW 5.8 mph - N/A   Clear
11:52 AM 57.2 °F - 37.4 °F 48% 29.69 in 10.0 mi SSW 6.9 mph - N/A   Clear
12:13 PM 59.0 °F - 37.4 °F 45% 29.68 in 10.0 mi SW 6.9 mph - N/A   Scattered Clouds
12:33 PM 60.8 °F - 37.4 °F 42% 29.67 in 10.0 mi SSW 5.8 mph - N/A   Clear
12:53 PM 60.8 °F - 39.2 °F 45% 29.66 in 10.0 mi SSW 8.1 mph 17.3 mph N/A   Clear
1:13 PM 62.6 °F - 39.2 °F 42% 29.65 in 10.0 mi South 8.1 mph - N/A   Clear
1:32 PM 62.6 °F - 41.0 °F 45% 29.64 in 10.0 mi SSW 9.2 mph 18.4 mph N/A   Clear
1:53 PM 64.4 °F - 42.8 °F 45% 29.62 in 10.0 mi SSW 6.9 mph 18.4 mph N/A   Clear
2:13 PM 66.2 °F - 42.8 °F 43% 29.61 in 10.0 mi South 6.9 mph - N/A   Clear
2:33 PM 66.2 °F - 44.6 °F 46% 29.61 in 10.0 mi South 8.1 mph 16.1 mph N/A   Clear
2:52 PM 68.0 °F - 44.6 °F 43% 29.60 in 10.0 mi South 9.2 mph - N/A   Clear
3:13 PM 69.8 °F - 44.6 °F 40% 29.59 in 10.0 mi SSW 9.2 mph 18.4 mph N/A   Clear
3:33 PM 69.8 °F - 44.6 °F 40% 29.59 in 10.0 mi SW 8.1 mph - N/A   Clear
3:52 PM 69.8 °F - 46.4 °F 43% 29.58 in 10.0 mi SW 9.2 mph - N/A   Clear
4:13 PM 71.6 °F - 44.6 °F 38% 29.57 in 10.0 mi SSW 8.1 mph 16.1 mph N/A   Clear
4:33 PM 71.6 °F - 46.4 °F 41% 29.56 in 10.0 mi SSW 8.1 mph - N/A   Clear
4:53 PM 73.4 °F - 46.4 °F 38% 29.55 in 10.0 mi SW 4.6 mph - N/A   Clear
5:13 PM 73.4 °F - 48.2 °F 41% 29.54 in 10.0 mi SSW 4.6 mph - N/A   Clear
5:33 PM 73.4 °F - 46.4 °F 38% 29.54 in 10.0 mi SSW 6.9 mph - N/A   Clear
5:53 PM 73.4 °F - 48.2 °F 41% 29.53 in 10.0 mi South 4.6 mph - N/A   Clear
6:13 PM 71.6 °F - 48.2 °F 43% 29.53 in 10.0 mi Calm Calm - N/A   Clear
6:33 PM 71.6 °F - 48.2 °F 43% 29.52 in 10.0 mi SSW 3.5 mph - N/A   Clear
6:53 PM 69.8 °F - 46.4 °F 43% 29.52 in 10.0 mi South 3.5 mph - N/A   Clear
7:13 PM 68.0 °F - 48.2 °F 49% 29.51 in 10.0 mi South 3.5 mph - N/A   Clear
7:33 PM 64.4 °F - 48.2 °F 56% 29.50 in 10.0 mi SSE 3.5 mph - N/A   Clear
7:53 PM 64.4 °F - 48.2 °F 56% 29.50 in 10.0 mi South 3.5 mph - N/A   Clear
8:13 PM 62.6 °F - 48.2 °F 59% 29.49 in 10.0 mi South 3.5 mph - N/A   Clear
8:33 PM 62.6 °F - 48.2 °F 59% 29.49 in 10.0 mi South 3.5 mph - N/A   Clear
8:53 PM 60.8 °F - 46.4 °F 59% 29.48 in 10.0 mi SSW 3.5 mph - N/A   Clear
9:13 PM 60.8 °F - 46.4 °F 59% 29.51 in 10.0 mi SW 9.2 mph - N/A   Unknown
9:33 PM 64.4 °F - 44.6 °F 49% 29.50 in 10.0 mi SW 6.9 mph - N/A   Scattered Clouds
9:52 PM 64.4 °F - 44.6 °F 49% 29.50 in 10.0 mi SW 5.8 mph - N/A   Scattered Clouds
10:13 PM 66.2 °F - 39.2 °F 37% 29.52 in 10.0 mi West 10.4 mph 18.4 mph N/A   Scattered Clouds
10:33 PM 64.4 °F - 39.2 °F 40% 29.52 in 10.0 mi NW 15.0 mph 19.6 mph N/A   Clear
10:53 PM 64.4 °F - 39.2 °F 40% 29.54 in 10.0 mi WNW 16.1 mph 24.2 mph N/A   Clear
11:13 PM 62.6 °F - 42.8 °F 48% 29.55 in 10.0 mi NW 12.7 mph 19.6 mph N/A   Clear
11:33 PM 60.8 °F - 42.8 °F 52% 29.57 in 10.0 mi NW 15.0 mph 21.9 mph N/A   Clear
11:53 PM 59.0 °F - 42.8 °F 55% 29.58 in 10.0 mi NW 17.3 mph 23.0 mph N/A   Scattered Clouds